Content
SEND FEEDBACK

Daily
Averages
Monthly
Summary
United States of America

CORAL SPRINGS, FLORIDA


Home > North America > United States > Florida
Elevation: 10 feet     Latitude: 26 14N     Longitude: 080 09W

WEATHER
 
SELECT A DAY
Number of Records: 171,833;   Date Range: 1/1/95 - 12/21/14
 
SHARE

PRINT THIS DATA

[ ← Previous Day ]
WEATHER ALMANAC - FEBRUARY 13, 2013
[ Next Day → ]
[ °C ]   °F
Weather ElementAverageHighLow
Temperature76 °F81 °F (11:53 am)71.1 °F (1:53 am)
Dewpoint70.9 °F71.1 °F (3:53 am)70 °F (1:53 am)
Humidity84.5 %97 % (4:53 am)71 % (2:53 pm)
Barometer29.98 in30.03 in (9:53 am)29.92 in (2:53 pm)
Wind Speed9.8 mph19.6 mph (1:53 pm)
Wind Gust26.5 mph (1:53 pm)
Weather ElementAverage
Visibility9.9 mi
Wind DirectionS (179.1 °)

Weather ElementTotal
Precipitation---
Cooling Degree Days11.1 (Base 65)
Growing Degree Days26.1 (Base 50)
Averaged from 23 records on February 13, 2013
WEATHER CONDITIONS BREAKOUT
WIND DIRECTION BREAKOUT
WEATHER BY HOUR - FEBRUARY 13, 2013
[ °C ]   °F
Local TimeTemperatureDewpointHumidityBarometerVisibilityWind DirectionWind SpeedGust SpeedPrecipitationEventsConditions
1:53 AM71.1 °F70.0 °F96 %30.01 in10.0 miSouth (190°)4.6 mphMostly Cloudy
2:53 AM71.1 °F70.0 °F96 %29.99 in10.0 miSouth (170°)6.9 mphScattered Clouds
3:53 AM73.0 °F71.1 °F93 %29.99 in10.0 miSouth (180°)4.6 mphPartly Cloudy
4:53 AM72.0 °F71.1 °F97 %29.99 in10.0 miSouth (190°)4.6 mphOvercast
5:53 AM72.0 °F71.1 °F97 %30.00 in10.0 miSouth (180°)4.6 mphScattered Clouds
6:53 AM73.0 °F71.1 °F93 %30.00 in10.0 miSouth (170°)6.9 mphClear
7:53 AM73.9 °F71.1 °F91 %30.01 in10.0 miSouth (170°)8.1 mphPartly Cloudy
8:53 AM77.0 °F71.1 °F82 %30.01 in10.0 miSouth (180°)11.5 mphPartly Cloudy
9:53 AM79.0 °F71.1 °F77 %30.03 in10.0 miSouth (170°)16.1 mphScattered Clouds
10:53 AM80.1 °F71.1 °F74 %30.02 in10.0 miSouth (170°)15.0 mph21.9 mphMostly Cloudy
11:53 AM81.0 °F71.1 °F72 %30.00 in10.0 miSouth (170°)15.0 mphMostly Cloudy
12:53 PM80.1 °F71.1 °F74 %29.97 in10.0 miSouth (180°)18.4 mph25.3 mphOvercast
1:53 PM80.1 °F71.1 °F74 %29.94 in10.0 miSSE (160°)19.6 mph26.5 mphMostly Cloudy
2:53 PM80.1 °F70.0 °F71 %29.92 in10.0 miSSE (160°)16.1 mph25.3 mphScattered Clouds
3:53 PM80.1 °F71.1 °F74 %29.92 in10.0 miSouth (170°)15.0 mphMostly Cloudy
4:53 PM78.1 °F71.1 °F79 %29.92 in10.0 miSouth (170°)12.7 mphScattered Clouds
5:53 PM78.1 °F71.1 °F79 %29.93 in10.0 miSouth (170°)10.4 mphScattered Clouds
6:53 PM77.0 °F71.1 °F82 %29.94 in10.0 miSouth (180°)8.1 mphScattered Clouds
7:53 PM77.0 °F71.1 °F82 %29.95 in10.0 miSouth (180°)6.9 mphScattered Clouds
8:53 PM75.0 °F71.1 °F87 %29.97 in10.0 miSSW (210°)4.6 mphScattered Clouds
9:53 PM73.9 °F70.0 °F87 %29.98 in10.0 miSSW (200°)4.6 mphClear
10:53 PM73.0 °F71.1 °F93 %29.99 in9.0 miSSW (210°)3.5 mphClear
11:53 PM73.0 °F71.1 °F93 %29.99 in9.0 miSouth (190°)6.9 mphClear
Hourly data recorded from KPMP, located miles away from Coral Springs, Florida







STORIES FROM OUR PARTNERS